• Processing (Info)

  • MPEC 2022-V145 : 2022 RO6

    The following Minor Planet Electronic Circular may be linked-to from your own Web pages, but must not otherwise be redistributed electronically.

    A form allowing access to any MPEC is at the bottom of this page.


    Read MPEC 2022-V144 Read MPEC 2022-V146


    M.P.E.C. 2022-V145                            Issued 2022 November 13, 14:12 UT
    
         The Minor Planet Electronic Circulars contain information on unusual
             minor planets, routine data on comets and natural satellites,
             and occasional editorial announcements.  They are published
        on behalf of Division F of the International Astronomical Union by the
              Minor Planet Center, Smithsonian Astrophysical Observatory,
                              Cambridge, MA 02138, U.S.A.
    			  
                 Prepared using the Tamkin Foundation Computer Network
    
                                  MPC@CFA.HARVARD.EDU
                URL https://www.minorplanetcenter.net/    ISSN 1523-6714
    
                                    2022 RO6                                 
    
    
                               Revision to MPEC 2022-S76                            
    
    Additional Observations:
         K22R06O  C2015 10 03.27481021 55 08.495-21 41 07.36         22.02GVEV145F51
         K22R06O  C2015 10 03.28578621 55 07.754-21 41 03.92         22.12GVEV145F51
         K22R06O  C2015 10 03.29676421 55 07.008-21 41 00.14         22.38GVEV145F51
         K22R06O  C2015 10 03.30774621 55 06.267-21 40 56.54         21.97GVEV145F51
         K22R06O  C2015 10 08.29270421 50 09.316-21 11 04.44         22.54GVEV145F51
         K22R06O  C2015 10 08.30396521 50 08.668-21 11 00.35         21.87GVEV145F51
         K22R06O  C2015 10 08.31515621 50 08.047-21 10 55.64         22.18GVEV145F51
         K22R06O  C2015 10 08.32637421 50 07.427-21 10 51.48         22.39GVEV145F51
    
    Observer details:
    F51 Pan-STARRS 1, Haleakala.  Observers J. Bulger, K. Chambers, T. Lowe, A.
        Schultz, I. Smith.  Measurers S. Chastel, J. Fairlamb, M. Huber, Y.
        Ramanjooloo, R. Wainscoat, R. Weryk.  1.8-m Ritchey-Chretien + CCD.
    
    Orbital elements:
    2022 RO6                                                 Earth MOID = 0.2061 AU
    Epoch 2022 Aug. 9.0 TT = JDT 2459800.5                  Veres                   
    M 309.56131              (2000.0)            P               Q                  
    n   0.29066008     Peri.  109.51744     -0.27607130     -0.96085173             
    a   2.2570739      Node   356.26388     +0.69046204     -0.18131292             
    e   0.5571167      Incl.   21.06622     +0.66861559     -0.20949841             
    P   3.39           H   18.75          G   0.15           U   0                  
    Residuals in seconds of arc
    151003 F51  0.0   0.0     221001 F52  0.1-  0.0     221014 H21  0.3-  0.2-
    151003 F51  0.0   0.1-    221001 B72  0.2-  0.0     221014 H21  0.1+  0.3-
    151003 F51  0.0   0.1+    221001 B72  0.2-  0.1+    221014 H21  0.1-  0.2-
    151003 F51  0.0   0.1+    221001 B72  0.5-  0.2-    221015 K19  0.2+  0.5+
    151008 F51  0.0   0.1+    221001 B72  0.6-  0.1-    221015 K19  0.1+  0.5+
    151008 F51  0.2-  0.2-    221002 F51  0.0   0.1+    221015 K19  1.0+  0.0
    151008 F51  0.0   0.2+    221002 F51  0.0   0.1+    221016 K19  0.0   0.4-
    151008 F51  0.1+  0.1-    221002 F51  0.1+  0.1+    221016 K19  0.9-  0.4+
    220820 F52  0.1-  0.3-    221003 703  0.6-  0.4+    221016 K19  0.6-  0.2+
    220820 F52  0.1+  0.1-    221003 703  0.0   0.0     221016 B67  0.1-  0.1+
    220820 F52  0.0   0.0     221003 703  0.2-  0.6-    221016 B67  0.0   0.4-
    220820 F52  0.1+  0.2-    221003 703  0.5+  0.3-    221016 B67  0.4-  0.6-
    220904 D29  0.4+  0.4-    221004 T08  0.2-  0.0     221017 G96  0.1+  0.0
    220904 D29  0.3-  0.1-    221004 T08  0.3-  0.0     221017 G96  0.0   0.0
    220904 D29  0.4+  0.9-    221004 T08  0.5+  0.3-    221017 G96  0.1+  0.1-
    220915 F51  0.0   0.1+    221004 T08  0.5+  0.3+    221017 G96  0.1-  0.1+
    220915 F51  0.0   0.1+    221004 T08  0.2+  1.0-    221018 F52  0.0   0.0
    220915 F51  0.0   0.0     221005 H21  0.2+  0.0     221018 F52  0.0   0.0
    220915 F51  0.1+  0.1-    221005 H21  0.1+  0.3+    221018 F52  0.0   0.0
    220916 G96  0.1-  0.1-    221005 H21  0.1+  0.3+    221018 F52  0.0   0.1+
    220916 G96  0.0   0.0     221005 H21  0.2-  0.1+    221020 T08  0.3-  0.7-
    220916 G96  0.1-  0.0     221005 H21  0.1-  0.1+    221020 T08  0.1+  0.1+
    220916 G96  0.1+  0.2+    221005 H21  0.2+  0.2+    221020 T08  0.3+  0.3-
    220918 F52  0.0   0.0     221005 H21  0.3+  0.3+    221020 T08  0.6-  1.0-
    220918 F52  0.0   0.0     221005 H21  0.0   0.2+    221021 703 (1.7+  2.0+)
    220918 F52  0.0   0.0     221005 H21  0.0   0.0     221021 703  0.2+  0.1+
    220925 G96  0.1-  0.0     221005 H21  0.0   0.1+    221021 703  0.4-  0.2+
    220925 G96  0.1-  0.0     221011 B72  0.0   0.0     221021 703  0.8-  0.3+
    220925 G96  0.0   0.0     221011 B72  0.1-  0.2+    221026 G96  0.0   0.1+
    220925 G96  0.0   0.1-    221011 B72  0.3-  0.5+    221026 G96  0.1+  0.0
    220926 D29  0.1-  0.1+    221011 B72  0.1-  0.5+    221026 G96  0.0   0.0
    220926 D29  0.1+  0.3-    221013 H21  0.1+  0.3-    221027 703  0.1+  0.4+
    220926 D29  0.3-  0.6-    221013 H21  0.0   0.2-    221027 703  0.2+  0.1+
    220927 703  2.2+  0.3+    221013 H21  0.1+  0.5-    221027 703  0.5+  0.6-
    220927 703  0.0   0.2+    221013 H21  0.5+  0.3-    221027 703  0.8-  0.6-
    220927 703  1.2-  0.2+    221013 H21  0.6+  0.3-    221030 703  0.2+  0.6+
    220927 F52  0.0   0.0     221013 H21  0.1-  0.3-    221030 703  1.4+  1.1+
    220927 F52  0.0   0.0     221014 H21  0.0   0.4-    221030 703  1.8+  0.8+
    220927 F52  0.0   0.0     221014 H21  0.0   0.4-    221030 D29  0.6-  0.1-
    220928 D29  0.1-  0.1-    221014 H21  0.1+  0.5-    221030 D29  0.2+  0.3-
    220928 D29  0.0   0.1-    221014 H21  0.0   0.4-    221030 D29  0.1-  1.2-
    220928 D29  0.1-  0.2-    221014 H21  0.1-  0.3-    221107 G96  0.2+  0.3-
    221001 F52  0.0   0.0     221014 H21  0.2-  0.5-    221107 G96  0.0   0.2-
    221001 F52  0.0   0.0     221014 H21  0.1-  0.6-    221107 G96 (0.2-  1.0+)
    221001 F52  0.0   0.0     221014 H21  0.3-  0.2-    221107 G96  0.2-  0.1-
    
    Ephemeris:
    2022 RO6                 a,e,i = 2.26, 0.56, 21                  q = 0.9996
    Date    TT    R. A. (2000) Decl.     Delta      r    Elong.  Phase     V
    2022 10 14    23 30 10.9 +13 05 20   0.6426  1.5994   153.7    16.0    19.7
    ...
    2022 10 29    22 54 36.5 +15 45 12   0.6209  1.4843   132.3    29.7    19.9
    ...
    2022 11 06    22 40 04.6 +17 08 22   0.6235  1.4234   122.0    36.2    20.0
    ...
    2022 11 12    22 31 51.1 +18 13 16   0.6287  1.3782   114.9    40.7    20.0
    2022 11 13    22 30 42.7 +18 24 27   0.6297  1.3707   113.8    41.4    20.0
    2022 11 14    22 29 38.1 +18 35 46   0.6308  1.3633   112.7    42.0    20.1
    ...
    2022 11 20    22 24 32.4 +19 46 48   0.6372  1.3192   106.5    45.9    20.1
    ...
    2022 11 28    22 21 14.1 +21 32 20   0.6446  1.2622    99.2    50.5    20.2
    ...
    2022 12 13    22 24 27.8 +25 34 23   0.6469  1.1635    88.5    57.8    20.2
    
    A. U. Tomatic                (C) Copyright 2022 MPC           M.P.E.C. 2022-V145
    


    Read MPEC 2022-V144 Read MPEC 2022-V146


    MPEC number:

    Enter an MPEC number in one of the following forms:

    • 1997-B01 (the full form)
    • J97B01 (the packed version of the full form)
    • B01 (the abbreviated form)